[[{"header":{"parameterUnit":"m.s-1","parameterCategory":2,"la1":30.2992,"la2":30.254,"lo1":-89.0895,"lo2":-89.0443,"dy":0.0025,"dx":0.0025,"nx":19,"ny":19,"refTime":"2026-04-22T03:00:00:Z","depth":"0","parameterNumber":2,"parameterNumberName":"U-component_of_CURRENTS"},"data":[0,0,0,0.2683,0.2684,0.2739,0.2739,0.2828,0.283,0,0,0,0,0,0,0,0,0,0,0,0.2655,0.2655,0.2682,0.2684,0.2739,0.2739,0.2828,0.283,0,0,0,0,0,0,0,0,0,0,0,0.2655,0.2655,0.2656,0.2685,0.2739,0.2739,0.2828,0.2778,0,0,0,0,0,0,0,0,0,0,0.2721,0.2691,0.2655,0.2656,0.2685,0.2739,0.2739,0.2775,0.2781,0.2814,0,0.283,0,0.2845,0.2837,0.2838,0,0,0,0.2668,0.2686,0.2714,0.2656,0.2686,0.2739,0.271,0.2778,0.2785,0.2822,0.2831,0.2834,0.2846,0.2838,0.2839,0.2968,0.2968,0,0,0.2665,0.2652,0.2709,0.2718,0.2711,0.2708,0.2712,0.2782,0.2787,0.2831,0.2837,0.2848,0.2839,0.284,0.2967,0.2968,0,0,0,0.2667,0.265,0.2675,0.2714,0.273,0.271,0.2714,0.2783,0.2795,0.2838,0.2849,0.284,0.2841,0.2967,0.2967,0.3008,0,0,0,0.2665,0.2653,0.2674,0.2665,0.2729,0.2754,0.2713,0.2789,0.2798,0.2848,0.284,0.2842,0.2966,0.2967,0.3006,0.3023,0,0,0,0.265,0.2651,0.2663,0.2664,0.2698,0.2753,0.2768,0.2791,0.2807,0.2838,0.2843,0.2966,0.2967,0.3004,0.3019,0.3101,0,0,0,0.2627,0.2646,0.2663,0.269,0.2698,0.2758,0.2767,0.2817,0.2846,0.284,0.2966,0.2967,0.3003,0.3017,0.3098,0.3024,0.3032,0,0,0.2637,0.2647,0.2664,0.2681,0.2732,0.2749,0.2813,0.2858,0.2876,0.294,0.2943,0.3007,0.3019,0.3101,0.3096,0.3102,0,0,0,0.2658,0.2671,0.2693,0.2723,0.2769,0.2824,0.2863,0.2901,0.2967,0.2903,0.3021,0.3028,0.3078,0.3027,0.3032,0.2814,0.2973,0.2973,0.2973,0.2638,0.2667,0.2696,0.2746,0.2795,0.288,0.2942,0.3,0.3006,0.3049,0.3071,0.3173,0.3118,0.3122,0.2897,0.3084,0.3084,0.3084,0.3084,0.2631,0.2636,0.2692,0.273,0.2806,0.2872,0.3013,0.3053,0.3171,0.3132,0.3179,0.3084,0.313,0.2888,0.3087,0.3087,0.3086,0.3086,0.3086,0.2585,0.2594,0.2621,0.2679,0.2768,0.2879,0.3012,0.3115,0.3205,0.3265,0.3233,0.3231,0.3012,0.3297,0.3297,0.3297,0.3298,0.3298,0.3298,0.2513,0.2548,0.2565,0.2644,0.2691,0.281,0.302,0.3129,0.3252,0.328,0.328,0.301,0.3239,0.3223,0.3305,0.3304,0.3303,0.3303,0.3302,0.2454,0.2478,0.2497,0.253,0.264,0.2701,0.2924,0.3113,0.3257,0.3296,0.3031,0.3302,0.3291,0.3284,0.327,0.336,0.336,0.336,0.336,0.2405,0.2425,0.2427,0.2456,0.2534,0.2644,0.2727,0.29,0.2977,0.293,0.2932,0.281,0.2817,0.2771,0.2776,0.2749,0.2704,0.2703,0.2702,0.2366,0.2378,0.2351,0.2387,0.2462,0.2553,0.2538,0.2497,0.2592,0.2654,0.2645,0.2672,0.2472,0.2501,0.2409,0.2434,0.2384,0,0]},{"header":{"parameterUnit":"m.s-1","parameterCategory":2,"la1":30.2992,"la2":30.254,"lo1":-89.0895,"lo2":-89.0443,"dy":0.0025,"dx":0.0025,"nx":19,"ny":19,"refTime":"2026-04-22T03:00:00:Z","depth":"0","parameterNumber":3,"parameterNumberName":"V-component_of_CURRENTS"},"data":[0,0,0,0.0212,0.0212,0.021,0.021,0.0183,0.0182,0,0,0,0,0,0,0,0,0,0,0,0.021,0.021,0.0212,0.0212,0.021,0.021,0.0183,0.0182,0,0,0,0,0,0,0,0,0,0,0,0.021,0.021,0.021,0.0212,0.021,0.021,0.0183,0.0188,0,0,0,0,0,0,0,0,0,0,0.0192,0.0196,0.021,0.021,0.0212,0.021,0.021,0.0189,0.0188,0.0179,0,0.0184,0,0.0187,0.0181,0.0181,0,0,0,0.0204,0.0196,0.02,0.021,0.0212,0.021,0.0209,0.0188,0.0188,0.0178,0.0183,0.0183,0.0186,0.0181,0.0181,0.0212,0.0212,0,0,0.0204,0.0204,0.02,0.0199,0.0218,0.0209,0.0209,0.0188,0.0187,0.0183,0.0182,0.0186,0.018,0.018,0.0211,0.0212,0,0,0,0.021,0.0204,0.0208,0.02,0.0204,0.0209,0.0209,0.0188,0.019,0.0182,0.0186,0.018,0.018,0.021,0.0211,0.0303,0,0,0,0.0209,0.0208,0.0208,0.0207,0.0205,0.0199,0.0209,0.0191,0.0189,0.0186,0.018,0.018,0.021,0.0211,0.0299,0.0369,0,0,0,0.0209,0.0208,0.021,0.0207,0.0211,0.02,0.0201,0.0191,0.0192,0.0181,0.018,0.0209,0.0211,0.0296,0.0362,0.0454,0,0,0,0.0205,0.0233,0.021,0.0244,0.0211,0.0247,0.0201,0.0216,0.0213,0.018,0.021,0.0211,0.0295,0.0357,0.0449,0.0578,0.0611,0,0,0.0245,0.0238,0.026,0.0241,0.0289,0.0246,0.0294,0.0264,0.0227,0.0212,0.0213,0.0301,0.0361,0.0453,0.0649,0.0681,0,0,0,0.0277,0.0296,0.0305,0.0325,0.0331,0.0351,0.0318,0.0312,0.0308,0.0232,0.03,0.0336,0.0391,0.0458,0.0483,0.037,0.0217,0.0217,0.0217,0.0335,0.0344,0.0389,0.0402,0.0422,0.0423,0.0443,0.0428,0.0368,0.0386,0.0409,0.0543,0.0614,0.0634,0.0515,0.0391,0.0392,0.0392,0.0392,0.0416,0.0449,0.0457,0.0506,0.0517,0.0554,0.0567,0.0544,0.0589,0.0504,0.0552,0.0549,0.0667,0.053,0.0398,0.0397,0.0396,0.0396,0.0395,0.0462,0.0482,0.0502,0.057,0.0635,0.0651,0.0758,0.073,0.0699,0.0741,0.0815,0.0815,0.0698,0.0763,0.0764,0.0764,0.0765,0.0765,0.0766,0.0502,0.0524,0.0586,0.0651,0.0709,0.0803,0.0881,0.094,0.099,0.0957,0.0957,0.0744,0.0656,0.0647,0.0777,0.0775,0.0773,0.0772,0.0772,0.0571,0.0575,0.0669,0.0729,0.0875,0.1036,0.1099,0.1266,0.1293,0.1348,0.1071,0.1072,0.1066,0.1046,0.1045,0.1271,0.1271,0.1271,0.1272,0.0612,0.0624,0.0748,0.0857,0.1005,0.1144,0.1436,0.1567,0.1454,0.1355,0.1208,0.1115,0.1099,0.1086,0.1065,0.106,0.1284,0.1284,0.1284,0.0662,0.0694,0.0789,0.0892,0.1062,0.1287,0.1608,0.1806,0.1544,0.1263,0.1027,0.1026,0.0856,0.0842,0.0787,0.0766,0.0746,0,0]}],[{"header":{"parameterUnit":"m.s-1","parameterCategory":2,"la1":30.2992,"la2":30.254,"lo1":-89.0895,"lo2":-89.0443,"dy":0.0025,"dx":0.0025,"nx":19,"ny":19,"refTime":"2026-04-22T03:00:00:Z","depth":"2","parameterNumber":2,"parameterNumberName":"U-component_of_CURRENTS"},"data":[0,0,0,0.2239,0.2241,0.2321,0.2321,0.2374,0.2375,0,0,0,0,0,0,0,0,0,0,0,0.2207,0.2207,0.2239,0.2241,0.2321,0.2321,0.2374,0.2375,0,0,0,0,0,0,0,0,0,0,0,0.2206,0.2207,0.2208,0.2241,0.2321,0.2321,0.2374,0.2326,0,0,0,0,0,0,0,0,0,0,0.2254,0.2243,0.2207,0.2208,0.2242,0.2321,0.2321,0.2324,0.2329,0.2324,0,0.2338,0,0.2359,0.2377,0.2377,0,0,0,0.224,0.2239,0.225,0.2208,0.2243,0.2321,0.2285,0.2327,0.2332,0.233,0.2339,0.2341,0.236,0.2377,0.2377,0.2469,0.247,0,0,0.2235,0.2231,0.2247,0.2254,0.2264,0.2282,0.2287,0.2331,0.2341,0.2339,0.2343,0.2361,0.2378,0.2378,0.2468,0.2469,0,0,0,0.2223,0.2228,0.2239,0.2251,0.2271,0.2284,0.229,0.2339,0.2341,0.2344,0.2362,0.2378,0.2378,0.2468,0.2469,0.2517,0,0,0,0.2221,0.2221,0.2237,0.2237,0.227,0.2316,0.2298,0.2337,0.2343,0.2361,0.2378,0.2379,0.2467,0.2468,0.2514,0.2513,0,0,0,0.2203,0.2219,0.2226,0.2236,0.2271,0.2316,0.2321,0.2339,0.2354,0.2377,0.2379,0.2466,0.2468,0.2512,0.2509,0.259,0,0,0,0.2198,0.2212,0.2226,0.2252,0.227,0.2314,0.2321,0.237,0.2394,0.2378,0.2467,0.2469,0.2511,0.2507,0.2587,0.2433,0.2435,0,0,0.2209,0.2214,0.2227,0.2242,0.2277,0.2303,0.2365,0.2405,0.2418,0.2446,0.2449,0.2515,0.2509,0.2589,0.2532,0.2531,0,0,0,0.2226,0.2234,0.2249,0.2276,0.2307,0.236,0.2404,0.2437,0.2505,0.2441,0.2537,0.2531,0.258,0.2481,0.2482,0.2477,0.2477,0.2476,0.2476,0.2223,0.224,0.2263,0.2294,0.2332,0.2408,0.2469,0.2525,0.2529,0.2584,0.2588,0.27,0.2595,0.2593,0.2619,0.2619,0.2619,0.2619,0.2619,0.2215,0.2218,0.2263,0.2288,0.2349,0.2411,0.2528,0.2576,0.2687,0.2654,0.2702,0.2557,0.2595,0.2624,0.2623,0.2622,0.2622,0.2622,0.2621,0.2182,0.2186,0.2211,0.2256,0.2335,0.2428,0.2533,0.2636,0.272,0.2777,0.2699,0.2695,0.2725,0.2821,0.2821,0.2822,0.2822,0.2822,0.2822,0.2125,0.2153,0.2169,0.2237,0.228,0.2378,0.2548,0.2627,0.2707,0.273,0.273,0.2768,0.2761,0.2738,0.2828,0.2827,0.2826,0.2826,0.2825,0.2071,0.2096,0.2109,0.214,0.2223,0.2253,0.2428,0.2517,0.2642,0.2642,0.2718,0.2719,0.2691,0.2687,0.2662,0.2729,0.2729,0.2729,0.2729,0.2028,0.2047,0.2044,0.2063,0.2106,0.2179,0.2144,0.2186,0.2362,0.2414,0.2428,0.232,0.2331,0.2277,0.2283,0.2248,0.2207,0.2206,0.2205,0.1993,0.2004,0.1977,0.1997,0.2033,0.2051,0.1918,0.1776,0.1924,0.2183,0.2328,0.2695,0.2569,0.2574,0.2515,0.2516,0.2468,0,0]},{"header":{"parameterUnit":"m.s-1","parameterCategory":2,"la1":30.2992,"la2":30.254,"lo1":-89.0895,"lo2":-89.0443,"dy":0.0025,"dx":0.0025,"nx":19,"ny":19,"refTime":"2026-04-22T03:00:00:Z","depth":"2","parameterNumber":3,"parameterNumberName":"V-component_of_CURRENTS"},"data":[0,0,0,0.0159,0.0159,0.016,0.016,0.0155,0.0155,0,0,0,0,0,0,0,0,0,0,0,0.0158,0.0158,0.0159,0.0159,0.016,0.016,0.0155,0.0155,0,0,0,0,0,0,0,0,0,0,0,0.0158,0.0158,0.0158,0.0159,0.016,0.016,0.0155,0.0154,0,0,0,0,0,0,0,0,0,0,0.0153,0.0151,0.0158,0.0158,0.0159,0.016,0.016,0.0154,0.0154,0.0155,0,0.016,0,0.0161,0.0155,0.0155,0,0,0,0.0152,0.0151,0.0158,0.0158,0.0159,0.016,0.0158,0.0154,0.0154,0.0155,0.016,0.016,0.0161,0.0155,0.0155,0.0189,0.019,0,0,0.0152,0.0151,0.0158,0.0158,0.0167,0.0158,0.0158,0.0154,0.0154,0.016,0.016,0.0161,0.0155,0.0155,0.0189,0.019,0,0,0,0.0156,0.0151,0.0157,0.0158,0.0161,0.0158,0.0158,0.0154,0.0158,0.016,0.0161,0.0155,0.0155,0.0189,0.0189,0.0268,0,0,0,0.0156,0.0154,0.0157,0.0155,0.0161,0.0157,0.0158,0.0158,0.0158,0.0161,0.0155,0.0156,0.0188,0.0189,0.0265,0.0321,0,0,0,0.0156,0.0154,0.0157,0.0155,0.016,0.0158,0.0161,0.0158,0.0158,0.0155,0.0156,0.0188,0.0189,0.0262,0.0315,0.0378,0,0,0,0.015,0.0175,0.0157,0.0187,0.016,0.0196,0.0161,0.0176,0.0179,0.0155,0.0188,0.0189,0.0262,0.0312,0.0374,0.0433,0.0455,0,0,0.0182,0.0178,0.0198,0.0184,0.0229,0.0194,0.0239,0.022,0.019,0.0187,0.0188,0.0266,0.0315,0.0377,0.0482,0.0503,0,0,0,0.021,0.0227,0.0237,0.0257,0.0268,0.0289,0.0265,0.026,0.0259,0.0196,0.0261,0.029,0.0327,0.0354,0.037,0.0193,0.0193,0.0193,0.0193,0.0253,0.0265,0.0308,0.0327,0.0348,0.0352,0.0371,0.0358,0.0312,0.0324,0.035,0.0447,0.0476,0.0489,0.0332,0.0332,0.0333,0.0333,0.0333,0.0319,0.0352,0.0367,0.0413,0.0431,0.0466,0.048,0.0458,0.0489,0.0424,0.0455,0.043,0.0512,0.0339,0.0338,0.0337,0.0337,0.0336,0.0336,0.0354,0.0375,0.0397,0.0466,0.053,0.055,0.0644,0.0617,0.058,0.061,0.063,0.0629,0.0514,0.062,0.0621,0.0621,0.0622,0.0622,0.0623,0.0384,0.0409,0.0467,0.0534,0.0594,0.0684,0.0749,0.0784,0.0784,0.0741,0.074,0.0545,0.0535,0.053,0.0631,0.0629,0.0628,0.0627,0.0627,0.0441,0.0447,0.0535,0.0596,0.0743,0.089,0.0936,0.1021,0.102,0.1027,0.0813,0.0805,0.0792,0.0778,0.0778,0.0937,0.0937,0.0937,0.0937,0.0476,0.0487,0.0605,0.0714,0.0863,0.0989,0.1184,0.1187,0.1095,0.1002,0.0999,0.0933,0.0919,0.0907,0.089,0.0889,0.1078,0.1078,0.1078,0.0522,0.0551,0.0642,0.0744,0.0917,0.1116,0.1296,0.1276,0.1107,0.1079,0.0974,0.0956,0.0846,0.0831,0.0796,0.0775,0.0767,0,0]}],[{"header":{"parameterUnit":"m.s-1","parameterCategory":2,"la1":30.2992,"la2":30.254,"lo1":-89.0895,"lo2":-89.0443,"dy":0.0025,"dx":0.0025,"nx":19,"ny":19,"refTime":"2026-04-22T03:00:00:Z","depth":"4","parameterNumber":2,"parameterNumberName":"U-component_of_CURRENTS"},"data":[0,0,0,0.1342,0.1344,0.1445,0.1445,0.151,0.151,0,0,0,0,0,0,0,0,0,0,0,0.1313,0.1314,0.1342,0.1344,0.1445,0.1446,0.1509,0.151,0,0,0,0,0,0,0,0,0,0,0,0.1312,0.1313,0.1314,0.1345,0.1445,0.1446,0.1509,0.145,0,0,0,0,0,0,0,0,0,0,0.136,0.1354,0.1313,0.1315,0.1345,0.1445,0.1446,0.1447,0.1453,0.1445,0,0.147,0,0.1488,0.1513,0.1513,0,0,0,0.1345,0.135,0.1364,0.1315,0.1346,0.1445,0.14,0.1451,0.1458,0.1452,0.1471,0.1474,0.1489,0.1513,0.1513,0.1585,0.1586,0,0,0.1339,0.1341,0.1359,0.1368,0.1383,0.1397,0.1403,0.1456,0.1473,0.1471,0.1476,0.149,0.1513,0.1513,0.1585,0.1585,0,0,0,0.1323,0.1337,0.1352,0.1365,0.1387,0.1399,0.1407,0.1471,0.1473,0.1476,0.149,0.1513,0.1514,0.1584,0.1585,0.1641,0,0,0,0.132,0.1327,0.1349,0.1353,0.1386,0.1442,0.1421,0.147,0.1476,0.149,0.1513,0.1514,0.1584,0.1585,0.1639,0.1637,0,0,0,0.1306,0.1326,0.1338,0.1352,0.1394,0.1442,0.1448,0.1472,0.1484,0.1513,0.1514,0.1583,0.1585,0.1636,0.1634,0.1668,0,0,0,0.1302,0.132,0.1339,0.1365,0.1393,0.1435,0.1448,0.1502,0.1532,0.1514,0.1584,0.1585,0.1635,0.1632,0.1666,0.1436,0,0,0,0.1311,0.1322,0.1332,0.135,0.1382,0.1421,0.1475,0.1529,0.1543,0.156,0.1563,0.1639,0.1634,0.1667,0.1506,0,0,0,0,0.1325,0.1335,0.1348,0.1378,0.1411,0.1469,0.152,0.1553,0.1621,0.1566,0.1647,0.1641,0.1661,0.1521,0.1591,0.1591,0.159,0.159,0.159,0.1333,0.1342,0.1361,0.1388,0.1429,0.1511,0.1565,0.162,0.1635,0.1688,0.1694,0.1763,0.1619,0.1715,0.1715,0.1716,0.1716,0.1716,0.1716,0.1321,0.1316,0.1362,0.1387,0.1453,0.1517,0.1619,0.167,0.1753,0.1749,0.1767,0.1598,0.1722,0.1721,0.172,0.1719,0.1719,0.1718,0.1718,0.1291,0.1288,0.1323,0.1371,0.1447,0.1541,0.1611,0.1714,0.179,0.1826,0.1685,0.1796,0.1782,0.1854,0.1855,0.1855,0.1855,0.1855,0.1855,0.1236,0.1264,0.1287,0.1354,0.1394,0.148,0.1625,0.1672,0.1776,0.1705,0.1849,0.1809,0.1805,0.179,0.1858,0.1857,0.1857,0.1857,0.1857,0.117,0.1206,0.1221,0.1254,0.1317,0.1348,0.1512,0.1565,0.1605,0.1591,0.1637,0.1647,0.1599,0.16,0.1576,0.1583,0.158,0.1578,0,0.1128,0.1145,0.1149,0.1155,0.1157,0.1248,0.1239,0.1326,0.1433,0.1385,0.1604,0.1653,0.166,0.1603,0.1599,0.1568,0,0,0,0.1088,0.1095,0.1071,0.1082,0.1062,0.1098,0.1222,0.1211,0.1416,0.1396,0.1509,0.1527,0.1709,0.1866,0.1817,0.1811,0.1785,0,0]},{"header":{"parameterUnit":"m.s-1","parameterCategory":2,"la1":30.2992,"la2":30.254,"lo1":-89.0895,"lo2":-89.0443,"dy":0.0025,"dx":0.0025,"nx":19,"ny":19,"refTime":"2026-04-22T03:00:00:Z","depth":"4","parameterNumber":3,"parameterNumberName":"V-component_of_CURRENTS"},"data":[0,0,0,0.0182,0.0182,0.0204,0.0204,0.0225,0.0225,0,0,0,0,0,0,0,0,0,0,0,0.0175,0.0176,0.0182,0.0182,0.0203,0.0204,0.0225,0.0225,0,0,0,0,0,0,0,0,0,0,0,0.0175,0.0176,0.0176,0.0182,0.0203,0.0204,0.0225,0.021,0,0,0,0,0,0,0,0,0,0,0.019,0.0184,0.0176,0.0176,0.0183,0.0203,0.0204,0.0209,0.0211,0.0215,0,0.0221,0,0.0225,0.0227,0.0227,0,0,0,0.018,0.0182,0.019,0.0176,0.0183,0.0203,0.0193,0.021,0.0212,0.0217,0.0222,0.0223,0.0225,0.0227,0.0227,0.0273,0.0274,0,0,0.0179,0.0176,0.0189,0.0192,0.0193,0.0193,0.0194,0.0211,0.0214,0.0222,0.0223,0.0225,0.0227,0.0227,0.0273,0.0273,0,0,0,0.0177,0.0175,0.0183,0.0191,0.0196,0.0193,0.0195,0.0213,0.0216,0.0223,0.0226,0.0227,0.0228,0.0273,0.0273,0.0322,0,0,0,0.0176,0.0175,0.0183,0.0181,0.0195,0.0205,0.0196,0.0215,0.0217,0.0225,0.0227,0.0228,0.0272,0.0273,0.032,0.0359,0,0,0,0.0174,0.0174,0.0178,0.0181,0.0191,0.0205,0.0209,0.0216,0.0219,0.0227,0.0228,0.0272,0.0273,0.0318,0.0355,0.0381,0,0,0,0.0167,0.0186,0.0179,0.0203,0.0191,0.0229,0.0209,0.0231,0.0242,0.0227,0.0272,0.0273,0.0318,0.0353,0.0379,0.0366,0,0,0,0.0189,0.0188,0.0205,0.0199,0.0241,0.0225,0.0269,0.0268,0.0254,0.0265,0.0266,0.0321,0.0355,0.038,0.0413,0,0,0,0,0.0211,0.0224,0.0235,0.0257,0.0276,0.0302,0.0298,0.0298,0.031,0.0264,0.0323,0.0344,0.0358,0.0344,0.0277,0.0277,0.0277,0.0277,0.0277,0.0234,0.025,0.0288,0.0312,0.0337,0.0356,0.0375,0.0375,0.035,0.0362,0.0385,0.0442,0.0429,0.0376,0.0376,0.0376,0.0377,0.0377,0.0377,0.0277,0.0305,0.033,0.0373,0.0402,0.0439,0.046,0.0448,0.0471,0.0437,0.0447,0.0398,0.0382,0.0381,0.038,0.0379,0.0379,0.0379,0.0378,0.0294,0.0313,0.034,0.0407,0.0472,0.0503,0.0572,0.0563,0.0531,0.0547,0.0519,0.0481,0.0476,0.0546,0.0546,0.0546,0.0546,0.0547,0.0547,0.0303,0.0333,0.0383,0.0452,0.0511,0.059,0.0646,0.066,0.0627,0.0591,0.0566,0.0499,0.0494,0.0486,0.0551,0.0551,0.055,0.055,0.0549,0.0331,0.0344,0.0418,0.0476,0.0611,0.0671,0.0725,0.0723,0.0732,0.0691,0.0605,0.0601,0.0584,0.0577,0.0571,0.0664,0.0664,0.0664,0,0.0347,0.0359,0.0459,0.0555,0.0666,0.0726,0.0768,0.0774,0.0708,0.0691,0.0712,0.0616,0.0612,0.0592,0.0586,0.0579,0,0,0,0.0372,0.0399,0.047,0.0564,0.0694,0.0746,0.0783,0.0769,0.0714,0.0709,0.0667,0.0666,0.0623,0.0565,0.053,0.0523,0.0509,0,0]}]]